sat.trackr.live / text

‹ back to catalog

STARLINK-37329

NORAD 69155 · 2026-111H

PAYLOAD ACTIVE UNKNOWN

§ Identity

Operator
Country
US
Launch date
2026-05-21
Launch site
AFETR
Launch vehicle
Mass (kg)
RCS (m²)

Purposes: comms

External: N2YO · Heavens-Above · Gunter

§ Orbital elements

Epoch: 2026-09-20T03:50:19.584960Z

Period
93.85 min
Inclination
53.1579°
Eccentricity
0.0000239
Mean motion
15.34412021 rev/d
Perigee alt
462.5 km
Apogee alt
462.8 km
Semi-major
6,840.8 km
B*
1.7518e-4
RAAN
67.5153°
Arg perigee
132.8669°
Mean anomaly
227.2353°
Rev number
1,884

§ Raw data

STARLINK-373291 69155U 26111H   26263.15994890  .00005550  00000+0  17518-3 0  99902 69155  53.1579  67.5153 0000239 132.8669 227.2353 15.34412021 18842

JSON: /api/v1/satellites/69155 · /tle

For live sub-satellite position, see the globe view (requires WebGL).

§ Visibility from observer

Set your observer location to see the next 7 days of passes ≥ 10°. The values pass through the URL so the page stays shareable.

No JS? Fill the form by hand. The geolocation button needs JavaScript.